When you browse on this site, cookies collect data to enhance your experience and personalize the content and advertising you see.
Visit our Privacy Policy to learn more. By continuing to use the site, you agree to this use of cookies and data.
  • In Hungary
  • List of Countries
  • For 7 days
  • Water Temperature
  • Satellite Maps
  • Weather Map
  • News
  • Weather Widgets
  • user-avatar
    Login

    Hourly Weather Weilheim in Oberbayern

    Today, 18 June, Tuesday

    Time Temperature Precipitation Wind Pressure Humidity
    00:00 +15°C° 0 mm 1 mps 712 mmHg 95%
    01:00 +14°C° 0 mm 1 mps 712 mmHg 95%
    02:00 +14°C° 0 mm 1 mps 712 mmHg 95%
    03:00 +12°C° 0 mm 0 mps 712 mmHg 95%
    04:00 +12°C° 0 mm 0 mps 711 mmHg 95%
    05:00 +14°C° 0 mm 0 mps 712 mmHg 91%
    06:00 +15°C° 0 mm 0 mps 712 mmHg 87%
    07:00 +17°C° 0 mm 0 mps 712 mmHg 83%
    08:00 +20°C° 0 mm 0 mps 712 mmHg 74%
    09:00 +24°C° 0 mm 1 mps 712 mmHg 64%
    10:00 +27°C° 0 mm 1 mps 712 mmHg 54%
    11:00 +28°C° 0 mm 1 mps 712 mmHg 50%
    12:00 +28°C° 0 mm 1 mps 712 mmHg 47%
    13:00 +29°C° 0 mm 2 mps 712 mmHg 43%
    14:00 +29°C° 0 mm 2 mps 712 mmHg 45%
    15:00 +28°C° 0 mm 2 mps 711 mmHg 46%
    16:00 +28°C° 0 mm 2 mps 711 mmHg 48%
    17:00 +26°C° 0.3 mm 2 mps 711 mmHg 58%
    18:00 +25°C° 0.3 mm 1 mps 711 mmHg 69%
    19:00 +21°C° 0.3 mm 0 mps 711 mmHg 79%
    20:00 +22°C° 0.1 mm 1 mps 711 mmHg 81%
    21:00 +20°C° 0.1 mm 1 mps 711 mmHg 83%
    22:00 +18°C° 0.1 mm 2 mps 711 mmHg 85%
    23:00 +17°C° 0 mm 2 mps 711 mmHg 85%

    Tomorrow, 19 June, Wednesday

    Time Temperature Precipitation Wind Pressure Humidity
    00:00 +17°C° 0 mm 2 mps 711 mmHg 85%
    01:00 +16°C° 0 mm 2 mps 710 mmHg 84%
    02:00 +16°C° 0.1 mm 2 mps 710 mmHg 84%
    03:00 +16°C° 0.1 mm 2 mps 710 mmHg 84%
    04:00 +15°C° 0.1 mm 2 mps 710 mmHg 83%
    05:00 +18°C° 0 mm 1 mps 710 mmHg 80%
    06:00 +19°C° 0 mm 1 mps 710 mmHg 77%
    07:00 +21°C° 0 mm 1 mps 710 mmHg 73%
    08:00 +23°C° 0 mm 1 mps 710 mmHg 65%
    09:00 +24°C° 0 mm 0 mps 710 mmHg 56%
    10:00 +26°C° 0 mm 0 mps 710 mmHg 47%
    11:00 +29°C° 0 mm 1 mps 710 mmHg 44%
    12:00 +30°C° 0 mm 1 mps 710 mmHg 41%
    13:00 +30°C° 0 mm 2 mps 710 mmHg 38%
    14:00 +29°C° 0.3 mm 2 mps 710 mmHg 43%
    15:00 +28°C° 0.3 mm 2 mps 710 mmHg 49%
    16:00 +27°C° 0.3 mm 2 mps 709 mmHg 54%
    17:00 +25°C° 0.7 mm 2 mps 709 mmHg 65%
    18:00 +21°C° 0.7 mm 2 mps 709 mmHg 76%
    19:00 +18°C° 0.7 mm 2 mps 709 mmHg 86%
    20:00 +18°C° 0 mm 2 mps 709 mmHg 86%
    21:00 +17°C° 0 mm 2 mps 709 mmHg 85%
    22:00 +16°C° 0 mm 2 mps 710 mmHg 84%
    23:00 +16°C° 0 mm 2 mps 710 mmHg 84%

    Day after tomorrow, 20 June, Thursday

    Time Temperature Precipitation Wind Pressure Humidity
    00:00 +15°C° 0 mm 2 mps 710 mmHg 84%
    01:00 +15°C° 0 mm 1 mps 710 mmHg 84%
    02:00 +15°C° 0 mm 1 mps 709 mmHg 84%
    03:00 +15°C° 0 mm 1 mps 709 mmHg 84%
    04:00 +15°C° 0 mm 1 mps 709 mmHg 85%
    05:00 +16°C° 0 mm 1 mps 709 mmHg 82%
    06:00 +17°C° 0 mm 0 mps 709 mmHg 78%
    07:00 +19°C° 0 mm 0 mps 709 mmHg 75%
    08:00 +23°C° 0 mm 1 mps 710 mmHg 68%
    09:00 +25°C° 0 mm 1 mps 710 mmHg 60%
    10:00 +27°C° 0 mm 1 mps 710 mmHg 52%
    11:00 +27°C° 0.2 mm 2 mps 709 mmHg 52%
    12:00 +28°C° 0.2 mm 3 mps 709 mmHg 52%
    13:00 +28°C° 0.2 mm 3 mps 709 mmHg 52%
    14:00 +25°C° 4.9 mm 3 mps 709 mmHg 66%
    15:00 +21°C° 4.9 mm 2 mps 708 mmHg 81%
    16:00 +18°C° 4.9 mm 2 mps 708 mmHg 95%
    17:00 +18°C° 1.2 mm 2 mps 709 mmHg 95%
    18:00 +19°C° 1.2 mm 1 mps 709 mmHg 96%
    19:00 +19°C° 1.2 mm 1 mps 710 mmHg 96%
    20:00 +18°C° 0.1 mm 1 mps 710 mmHg 96%
    21:00 +16°C° 0.1 mm 1 mps 711 mmHg 95%
    22:00 +16°C° 0.1 mm 1 mps 711 mmHg 95%
    23:00 +15°C° 0 mm 1 mps 711 mmHg 95%

    21 June, Friday

    Time Temperature Precipitation Wind Pressure Humidity
    00:00 +15°C° 0 mm 1 mps 711 mmHg 95%
    01:00 +14°C° 0 mm 1 mps 711 mmHg 95%
    02:00 +14°C° 0 mm 1 mps 711 mmHg 95%
    03:00 +14°C° 0 mm 1 mps 711 mmHg 95%
    04:00 +13°C° 0 mm 0 mps 711 mmHg 96%
    05:00 +14°C° 0.2 mm 0 mps 711 mmHg 95%
    06:00 +15°C° 0.2 mm 0 mps 711 mmHg 95%
    07:00 +16°C° 0.2 mm 1 mps 712 mmHg 95%
    08:00 +18°C° 0.5 mm 1 mps 712 mmHg 94%
    09:00 +17°C° 0.5 mm 2 mps 712 mmHg 93%
    10:00 +17°C° 0.5 mm 2 mps 712 mmHg 92%
    11:00 +19°C° 0.2 mm 2 mps 712 mmHg 81%
    12:00 +22°C° 0.2 mm 1 mps 712 mmHg 69%
    13:00 +23°C° 0.2 mm 1 mps 712 mmHg 58%
    14:00 +24°C° 0 mm 1 mps 712 mmHg 56%
    15:00 +24°C° 0 mm 2 mps 712 mmHg 54%
    16:00 +25°C° 0 mm 2 mps 712 mmHg 51%
    17:00 +23°C° 0.1 mm 2 mps 712 mmHg 59%
    18:00 +22°C° 0.1 mm 1 mps 712 mmHg 67%
    19:00 +21°C° 0.1 mm 1 mps 712 mmHg 75%
    20:00 +20°C° 0 mm 1 mps 712 mmHg 79%
    21:00 +16°C° 0 mm 0 mps 713 mmHg 82%
    22:00 +15°C° 0 mm 0 mps 713 mmHg 86%
    23:00 +15°C° 0 mm 0 mps 713 mmHg 87%

    22 June, Saturday

    Time Temperature Precipitation Wind Pressure Humidity
    00:00 +14°C° 0 mm 0 mps 712 mmHg 88%
    01:00 +14°C° 0 mm 0 mps 712 mmHg 89%
    02:00 +14°C° 0 mm 0 mps 712 mmHg 89%
    03:00 +13°C° 0 mm 0 mps 712 mmHg 90%
    04:00 +13°C° 0 mm 0 mps 712 mmHg 90%
    05:00 +14°C° 0 mm 0 mps 712 mmHg 87%
    06:00 +15°C° 0 mm 0 mps 712 mmHg 84%
    07:00 +16°C° 0 mm 0 mps 713 mmHg 81%
    08:00 +20°C° 0 mm 1 mps 713 mmHg 76%
    09:00 +21°C° 0 mm 1 mps 713 mmHg 71%
    10:00 +22°C° 0 mm 1 mps 713 mmHg 66%
    11:00 +23°C° 0 mm 2 mps 713 mmHg 61%
    12:00 +25°C° 0 mm 2 mps 713 mmHg 55%
    13:00 +26°C° 0 mm 3 mps 713 mmHg 49%
    14:00 +26°C° 0 mm 3 mps 713 mmHg 50%
    15:00 +26°C° 0 mm 4 mps 712 mmHg 51%
    16:00 +25°C° 0 mm 4 mps 712 mmHg 52%
    17:00 +24°C° 0 mm 3 mps 712 mmHg 60%
    18:00 +21°C° 0 mm 3 mps 712 mmHg 68%
    19:00 +20°C° 0 mm 2 mps 712 mmHg 76%
    20:00 +18°C° 0.1 mm 2 mps 712 mmHg 82%
    21:00 +18°C° 0.1 mm 1 mps 712 mmHg 88%
    22:00 +15°C° 0.1 mm 1 mps 712 mmHg 94%
    23:00 +15°C° 0 mm 1 mps 712 mmHg 94%

    23 June, Sunday

    Time Temperature Precipitation Wind Pressure Humidity
    00:00 +15°C° 0 mm 1 mps 712 mmHg 93%
    01:00 +15°C° 0 mm 1 mps 712 mmHg 93%
    02:00 +15°C° 0 mm 1 mps 712 mmHg 93%
    03:00 +15°C° 0 mm 1 mps 712 mmHg 93%
    04:00 +14°C° 0 mm 1 mps 712 mmHg 93%
    05:00 +16°C° 0 mm 1 mps 712 mmHg 87%
    06:00 +19°C° 0 mm 1 mps 713 mmHg 81%
    07:00 +19°C° 0 mm 0 mps 713 mmHg 75%
    08:00 +21°C° 0 mm 0 mps 713 mmHg 67%
    09:00 +25°C° 0 mm 1 mps 714 mmHg 60%
    10:00 +27°C° 0 mm 1 mps 714 mmHg 52%
    11:00 +27°C° 0 mm 1 mps 714 mmHg 49%
    12:00 +28°C° 0 mm 1 mps 714 mmHg 47%
    13:00 +29°C° 0 mm 2 mps 714 mmHg 44%
    14:00 +28°C° 0.1 mm 2 mps 713 mmHg 47%
    15:00 +28°C° 0.1 mm 2 mps 713 mmHg 50%
    16:00 +28°C° 0.1 mm 2 mps 713 mmHg 53%
    17:00 +26°C° 0.4 mm 2 mps 713 mmHg 63%
    18:00 +25°C° 0.4 mm 1 mps 713 mmHg 73%
    19:00 +23°C° 0.4 mm 1 mps 713 mmHg 83%
    20:00 +22°C° 0 mm 1 mps 714 mmHg 86%
    21:00 +20°C° 0 mm 1 mps 714 mmHg 89%
    22:00 +19°C° 0 mm 1 mps 714 mmHg 92%
    23:00 +19°C° 0 mm 1 mps 714 mmHg 93%
    Show more